Tracking 25709 objects as of 24-May-2022
HD Live streaming from Space Station
objects crossing your sky now

SL-23 DEB

Track SL-23 DEB now!


NORAD ID: 43385
Int'l Code: 2009-009D
Perigee: 1,108.7 km
Apogee: 35,905.7 km
Inclination: 33.7 °
Period: 650.9 minutes
Semi major axis: 24878 km
RCS: Unknown
Launch date: February 26, 2009
Source: Commonwealth of Independent States (former USSR) (CIS)
Launch site: TYURATAM MISSILE AND SPACE COMPLEX (TTMTR)

Note: This is SATELLITE DEBRIS
aabbcc
Your satellite tracking list
Your tracking list is empty




NASA's NSSDC Master Catalog

Two Line Element Set (TLE):
1 43385U 09009D   22120.60332766  .00000045  00000-0  00000-0 0  9990
2 43385  33.7430 240.7864 6993482  67.9537   9.6196  2.21245915 71138
Source of the keplerian elements: AFSPC